Time,TemperatureF,DewpointF,PressureIn,WindDirection,WindDirectionDegrees,WindSpeedMPH,WindSpeedGustMPH,Humidity,HourlyPrecipIn,Conditions,Clouds,dailyrainin,SoftwareType,DateUTC
2013-07-04 00:00:00,70.7,52.0,29.71,SSE,162,7.0,11.0,51,0.00,,,0.00,weatherlink.com 1.10,2013-07-04 07:00:00,
2013-07-04 00:15:00,70.7,52.0,29.71,South,172,4.0,12.0,51,0.00,,,0.00,weatherlink.com 1.10,2013-07-04 07:15:00,
2013-07-04 00:30:00,70.8,52.0,29.71,SSW,193,7.0,11.0,51,0.00,,,0.00,weatherlink.com 1.10,2013-07-04 07:30:00,
2013-07-04 00:45:00,70.5,51.0,29.72,SSE,161,6.0,10.0,51,0.00,,,0.00,weatherlink.com 1.10,2013-07-04 07:45:00,
2013-07-04 01:00:00,70.3,51.0,29.71,South,188,10.0,11.0,51,0.00,,,0.00,weatherlink.com 1.10,2013-07-04 08:00:00,
2013-07-04 01:15:00,69.9,51.0,29.72,SSW,210,8.0,10.0,52,0.00,,,0.00,weatherlink.com 1.10,2013-07-04 08:15:00,
2013-07-04 01:31:00,70.0,51.0,29.72,SSW,201,5.0,13.0,52,0.00,,,0.00,weatherlink.com 1.10,2013-07-04 08:31:00,
2013-07-04 01:46:00,69.8,51.0,29.71,SSW,194,8.0,11.0,52,0.00,,,0.00,weatherlink.com 1.10,2013-07-04 08:46:00,
2013-07-04 02:01:00,69.8,51.0,29.71,SSW,210,7.0,13.0,52,0.00,,,0.00,weatherlink.com 1.10,2013-07-04 09:01:00,
2013-07-04 02:16:00,69.9,51.0,29.71,SSW,211,10.0,12.0,51,0.00,,,0.00,weatherlink.com 1.10,2013-07-04 09:16:00,
2013-07-04 02:31:00,69.9,51.0,29.70,SSW,200,8.0,12.0,51,0.00,,,0.00,weatherlink.com 1.10,2013-07-04 09:31:00,
2013-07-04 02:46:00,70.0,51.0,29.69,South,177,6.0,11.0,51,0.00,,,0.00,weatherlink.com 1.10,2013-07-04 09:46:00,
2013-07-04 03:01:00,69.8,51.0,29.69,South,179,7.0,11.0,52,0.00,,,0.00,weatherlink.com 1.10,2013-07-04 10:01:00,
2013-07-04 03:16:00,69.4,51.0,29.68,SSE,160,9.0,10.0,52,0.00,,,0.00,weatherlink.com 1.10,2013-07-04 10:16:00,
2013-07-04 03:31:00,69.7,51.0,29.68,SSE,165,6.0,12.0,51,0.00,,,0.00,weatherlink.com 1.10,2013-07-04 10:31:00,
2013-07-04 03:46:00,69.2,51.0,29.68,South,183,7.0,10.0,52,0.00,,,0.00,weatherlink.com 1.10,2013-07-04 10:46:00,
2013-07-04 04:01:00,69.4,50.0,29.67,SW,214,4.0,10.0,51,0.00,,,0.00,weatherlink.com 1.10,2013-07-04 11:01:00,
2013-07-04 04:16:00,69.6,50.0,29.68,WNW,297,1.0,10.0,50,0.00,,,0.00,weatherlink.com 1.10,2013-07-04 11:16:00,
2013-07-04 04:31:00,69.2,50.0,29.68,South,173,6.0,8.0,50,0.00,,,0.00,weatherlink.com 1.10,2013-07-04 11:31:00,
2013-07-04 04:46:00,69.2,50.0,29.67,SSW,195,7.0,8.0,50,0.00,,,0.00,weatherlink.com 1.10,2013-07-04 11:46:00,
2013-07-04 05:01:00,68.7,50.0,29.67,SSW,200,9.0,9.0,51,0.00,,,0.00,weatherlink.com 1.10,2013-07-04 12:01:00,
2013-07-04 05:16:00,69.4,49.0,29.67,SSW,194,5.0,10.0,49,0.00,,,0.00,weatherlink.com 1.10,2013-07-04 12:16:00,
2013-07-04 05:31:00,68.7,49.0,29.67,SSW,193,7.0,11.0,50,0.00,,,0.00,weatherlink.com 1.10,2013-07-04 12:31:00,
2013-07-04 05:46:00,68.3,49.0,29.68,SW,216,5.0,9.0,51,0.00,,,0.00,weatherlink.com 1.10,2013-07-04 12:46:00,
2013-07-04 06:01:00,68.9,49.0,29.68,South,176,4.0,10.0,50,0.00,,,0.00,weatherlink.com 1.10,2013-07-04 13:01:00,
2013-07-04 06:16:00,68.8,49.0,29.68,SSE,157,7.0,12.0,50,0.00,,,0.00,weatherlink.com 1.10,2013-07-04 13:16:00,
2013-07-04 06:31:00,69.6,49.0,29.68,South,184,6.0,10.0,49,0.00,,,0.00,weatherlink.com 1.10,2013-07-04 13:31:00,
2013-07-04 06:46:00,69.9,49.0,29.68,SSW,195,6.0,10.0,48,0.00,,,0.00,weatherlink.com 1.10,2013-07-04 13:46:00,
2013-07-04 07:01:00,70.4,49.0,29.69,South,180,7.0,10.0,47,0.00,,,0.00,weatherlink.com 1.10,2013-07-04 14:01:00,
2013-07-04 07:16:00,71.0,49.0,29.69,SSE,152,4.0,10.0,46,0.00,,,0.00,weatherlink.com 1.10,2013-07-04 14:16:00,
2013-07-04 07:31:00,72.4,50.0,29.69,SSE,155,5.0,13.0,45,0.00,,,0.00,weatherlink.com 1.10,2013-07-04 14:31:00,
2013-07-04 07:46:00,74.4,50.0,29.69,South,173,5.0,11.0,43,0.00,,,0.00,weatherlink.com 1.10,2013-07-04 14:46:00,
2013-07-04 08:01:00,76.0,51.0,29.70,SSE,168,6.0,15.0,41,0.00,,,0.00,weatherlink.com 1.10,2013-07-04 15:01:00,
2013-07-04 08:16:00,77.6,51.0,29.69,SSW,201,11.0,16.0,39,0.00,,,0.00,weatherlink.com 1.10,2013-07-04 15:16:00,
2013-07-04 08:31:00,79.2,51.0,29.69,SSW,194,7.0,14.0,37,0.00,,,0.00,weatherlink.com 1.10,2013-07-04 15:31:00,
2013-07-04 08:47:00,80.1,50.0,29.69,South,173,7.0,15.0,35,0.00,,,0.00,weatherlink.com 1.10,2013-07-04 15:47:00,
2013-07-04 09:02:00,81.8,51.0,29.69,South,176,12.0,14.0,34,0.00,,,0.00,weatherlink.com 1.10,2013-07-04 16:02:00,
2013-07-04 09:18:00,82.1,51.0,29.69,South,181,10.0,18.0,34,0.00,,,0.00,weatherlink.com 1.10,2013-07-04 16:18:00,
2013-07-04 09:32:00,83.2,51.0,29.69,SW,225,12.0,16.0,33,0.00,,,0.00,weatherlink.com 1.10,2013-07-04 16:32:00,
2013-07-04 09:47:00,84.4,51.0,29.69,SSW,205,12.0,16.0,32,0.00,,,0.00,weatherlink.com 1.10,2013-07-04 16:47:00,
2013-07-04 10:02:00,85.1,52.0,29.69,SSE,155,6.0,17.0,32,0.00,,,0.00,weatherlink.com 1.10,2013-07-04 17:02:00,
2013-07-04 10:17:00,85.7,52.0,29.69,South,183,4.0,19.0,31,0.00,,,0.00,weatherlink.com 1.10,2013-07-04 17:17:00,
2013-07-04 10:32:00,86.3,52.0,29.68,South,184,8.0,17.0,31,0.00,,,0.00,weatherlink.com 1.10,2013-07-04 17:32:00,
2013-07-04 10:47:00,87.2,52.0,29.68,WSW,249,15.0,18.0,30,0.00,,,0.00,weatherlink.com 1.10,2013-07-04 17:47:00,
2013-07-04 11:02:00,87.9,52.0,29.68,WSW,239,12.0,18.0,29,0.00,,,0.00,weatherlink.com 1.10,2013-07-04 18:02:00,
2013-07-04 11:17:00,88.4,52.0,29.69,SW,226,17.0,18.0,29,0.00,,,0.00,weatherlink.com 1.10,2013-07-04 18:17:00,
2013-07-04 11:32:00,89.2,52.0,29.69,NW,309,5.0,17.0,28,0.00,,,0.00,weatherlink.com 1.10,2013-07-04 18:32:00,
2013-07-04 11:47:00,89.3,51.0,29.68,SSW,208,9.0,18.0,27,0.00,,,0.00,weatherlink.com 1.10,2013-07-04 18:47:00,
2013-07-04 12:02:00,89.5,51.0,29.68,ENE,65,9.0,22.0,27,0.00,,,0.00,weatherlink.com 1.10,2013-07-04 19:02:00,
2013-07-04 12:17:00,90.2,51.0,29.68,SW,229,14.0,24.0,26,0.00,,,0.00,weatherlink.com 1.10,2013-07-04 19:17:00,
2013-07-04 12:32:00,90.5,51.0,29.68,South,177,19.0,21.0,26,0.00,,,0.00,weatherlink.com 1.10,2013-07-04 19:32:00,
2013-07-04 12:47:00,90.6,52.0,29.68,SSE,165,13.0,24.0,27,0.00,,,0.00,weatherlink.com 1.10,2013-07-04 19:47:00,
2013-07-04 13:02:00,91.4,53.0,29.68,SSE,159,17.0,23.0,27,0.00,,,0.00,weatherlink.com 1.10,2013-07-04 20:02:00,
2013-07-04 13:17:00,91.6,52.0,29.67,SW,233,12.0,20.0,26,0.00,,,0.00,weatherlink.com 1.10,2013-07-04 20:17:00,
2013-07-04 13:32:00,91.9,51.0,29.67,SSW,195,10.0,24.0,25,0.00,,,0.00,weatherlink.com 1.10,2013-07-04 20:32:00,
2013-07-04 13:47:00,91.9,51.0,29.67,South,184,12.0,21.0,25,0.00,,,0.00,weatherlink.com 1.10,2013-07-04 20:47:00,
2013-07-04 14:02:00,92.0,51.0,29.67,SW,234,5.0,21.0,25,0.00,,,0.00,weatherlink.com 1.10,2013-07-04 21:02:00,
2013-07-04 14:17:00,91.9,51.0,29.66,West,267,14.0,24.0,25,0.00,,,0.00,weatherlink.com 1.10,2013-07-04 21:17:00,
2013-07-04 14:32:00,92.2,51.0,29.66,South,191,7.0,22.0,24,0.00,,,0.00,weatherlink.com 1.10,2013-07-04 21:32:00,
2013-07-04 14:48:00,91.8,50.0,29.65,South,184,11.0,24.0,24,0.00,,,0.00,weatherlink.com 1.10,2013-07-04 21:48:00,
2013-07-04 15:03:00,92.0,50.0,29.65,SSE,166,16.0,23.0,24,0.00,,,0.00,weatherlink.com 1.10,2013-07-04 22:03:00,
2013-07-04 15:18:00,92.2,51.0,29.64,SSW,207,17.0,21.0,24,0.00,,,0.00,weatherlink.com 1.10,2013-07-04 22:18:00,
2013-07-04 15:33:00,92.7,51.0,29.64,SSE,165,7.0,22.0,24,0.00,,,0.00,weatherlink.com 1.10,2013-07-04 22:33:00,
2013-07-04 15:48:00,92.1,52.0,29.64,West,280,4.0,21.0,25,0.00,,,0.00,weatherlink.com 1.10,2013-07-04 22:48:00,
2013-07-04 16:03:00,91.6,52.0,29.64,SSW,210,6.0,21.0,26,0.00,,,0.00,weatherlink.com 1.10,2013-07-04 23:03:00,
2013-07-04 16:18:00,91.4,53.0,29.64,South,191,11.0,21.0,27,0.00,,,0.00,weatherlink.com 1.10,2013-07-04 23:18:00,
2013-07-04 16:33:00,90.4,52.0,29.64,ESE,118,12.0,20.0,27,0.00,,,0.00,weatherlink.com 1.10,2013-07-04 23:33:00,
2013-07-04 16:48:00,90.4,52.0,29.64,SSW,195,7.0,22.0,27,0.00,,,0.00,weatherlink.com 1.10,2013-07-04 23:48:00,
2013-07-04 17:03:00,89.7,52.0,29.63,SSE,168,11.0,20.0,27,0.00,,,0.00,weatherlink.com 1.10,2013-07-05 00:03:00,
2013-07-04 17:18:00,89.0,52.0,29.63,SE,139,7.0,19.0,28,0.00,,,0.00,weatherlink.com 1.10,2013-07-05 00:18:00,
2013-07-04 17:33:00,87.6,51.0,29.63,SW,219,13.0,21.0,28,0.00,,,0.00,weatherlink.com 1.10,2013-07-05 00:33:00,
2013-07-04 17:48:00,86.3,50.0,29.63,SW,217,9.0,23.0,29,0.00,,,0.00,weatherlink.com 1.10,2013-07-05 00:48:00,
2013-07-04 18:03:00,85.5,51.0,29.63,SSW,211,14.0,22.0,30,0.00,,,0.00,weatherlink.com 1.10,2013-07-05 01:03:00,
2013-07-04 18:18:00,84.7,51.0,29.63,South,171,8.0,23.0,31,0.00,,,0.00,weatherlink.com 1.10,2013-07-05 01:18:00,
2013-07-04 18:33:00,83.4,51.0,29.63,WSW,238,14.0,23.0,33,0.00,,,0.00,weatherlink.com 1.10,2013-07-05 01:33:00,
2013-07-04 18:48:00,82.3,51.0,29.64,SW,220,19.0,27.0,34,0.00,,,0.00,weatherlink.com 1.10,2013-07-05 01:48:00,
2013-07-04 19:03:00,81.3,50.0,29.64,South,190,7.0,23.0,34,0.00,,,0.00,weatherlink.com 1.10,2013-07-05 02:03:00,
2013-07-04 19:18:00,80.6,51.0,29.64,SSE,156,7.0,25.0,35,0.00,,,0.00,weatherlink.com 1.10,2013-07-05 02:18:00,
2013-07-04 19:33:00,80.0,51.0,29.65,SSW,207,8.0,20.0,36,0.00,,,0.00,weatherlink.com 1.10,2013-07-05 02:33:00,
2013-07-04 19:48:00,79.2,51.0,29.65,SSW,197,15.0,20.0,37,0.00,,,0.00,weatherlink.com 1.10,2013-07-05 02:48:00,
2013-07-04 20:03:00,78.4,51.0,29.66,South,173,15.0,25.0,39,0.00,,,0.00,weatherlink.com 1.10,2013-07-05 03:03:00,
2013-07-04 20:18:00,77.5,52.0,29.66,SSE,167,10.0,21.0,41,0.00,,,0.00,weatherlink.com 1.10,2013-07-05 03:18:00,
2013-07-04 20:33:00,76.8,52.0,29.67,SSE,164,9.0,23.0,42,0.00,,,0.00,weatherlink.com 1.10,2013-07-05 03:33:00,
2013-07-04 20:48:00,76.1,52.0,29.67,South,191,7.0,21.0,43,0.00,,,0.00,weatherlink.com 1.10,2013-07-05 03:48:00,
2013-07-04 21:03:00,75.2,52.0,29.67,SW,225,11.0,25.0,44,0.00,,,0.00,weatherlink.com 1.10,2013-07-05 04:03:00,
2013-07-04 21:18:00,74.4,52.0,29.68,WNW,292,8.0,24.0,45,0.00,,,0.00,weatherlink.com 1.10,2013-07-05 04:18:00,
2013-07-04 21:33:00,73.9,52.0,29.68,South,169,12.0,24.0,46,0.00,,,0.00,weatherlink.com 1.10,2013-07-05 04:33:00,
2013-07-04 21:48:00,73.5,51.0,29.68,SSE,160,16.0,22.0,46,0.00,,,0.00,weatherlink.com 1.10,2013-07-05 04:48:00,
2013-07-04 22:03:00,73.3,51.0,29.69,NW,309,4.0,24.0,45,0.00,,,0.00,weatherlink.com 1.10,2013-07-05 05:03:00,
2013-07-04 22:18:00,72.9,50.0,29.69,SSW,198,3.0,21.0,44,0.00,,,0.00,weatherlink.com 1.10,2013-07-05 05:18:00,
2013-07-04 22:33:00,72.7,50.0,29.69,SSE,156,10.0,19.0,45,0.00,,,0.00,weatherlink.com 1.10,2013-07-05 05:33:00,
2013-07-04 22:48:00,72.8,50.0,29.69,SSE,167,13.0,18.0,44,0.00,,,0.00,weatherlink.com 1.10,2013-07-05 05:48:00,
2013-07-04 23:03:00,72.3,50.0,29.70,WSW,241,10.0,17.0,45,0.00,,,0.00,weatherlink.com 1.10,2013-07-05 06:03:00,
2013-07-04 23:18:00,72.2,50.0,29.70,WNW,295,7.0,18.0,45,0.00,,,0.00,weatherlink.com 1.10,2013-07-05 06:18:00,
2013-07-04 23:33:00,71.0,49.0,29.70,NW,322,3.0,15.0,46,0.00,,,0.00,weatherlink.com 1.10,2013-07-05 06:33:00,
2013-07-04 23:48:00,70.0,49.0,29.70,WSW,239,10.0,11.0,47,0.00,,,0.00,weatherlink.com 1.10,2013-07-05 06:48:00,